Hourly Data Report for August 15, 2005

TORONTO CITY
ONTARIO

43°40'00.000" N
79°24'00.000" W
112.50 m
6158355
71508
XTO

Download Data

Hourly Data (August 2005)
Hourly Data Report for August 15, 2005
TIME
LST
Temp Definition
°C
Dew Point Definition
°C
Rel Hum Definition
%
Precip. Amount Definition
mm

Wind Dir Definition
10's deg

Wind Spd Definition
km/h
Visibility Definition
km
Stn Press Definition
kPa
Hmdx Definition


Wind Chill Definition


Weather Definition


00:00 20.1 13.8 67   LegendMM LegendMM   100.50     LegendNANA
01:00 19.2 13.2 68   LegendMM LegendMM   100.48     LegendNANA
02:00 18.4 13.5 73   LegendMM LegendMM   100.49     LegendNANA
03:00 17.1 13.6 80   LegendMM LegendMM   100.53     LegendNANA
04:00 15.8 13.5 86   LegendMM LegendMM   100.56     LegendNANA
05:00 15.7 13.7 88   LegendMM LegendMM   100.60     LegendNANA
06:00 15.4 14.0 91   LegendMM LegendMM   100.63     LegendNANA
07:00 17.9 15.1 84   LegendMM LegendMM   100.66     LegendNANA
08:00 20.5 16.5 78   LegendMM LegendMM   100.68 25   LegendNANA
09:00 22.4 16.1 68   LegendMM LegendMM   100.69 27   LegendNANA
10:00 24.4 17.5 65   LegendMM LegendMM   100.70 30   LegendNANA
11:00 26.0 13.6 46   LegendMM LegendMM   100.69 29   LegendNANA
12:00 27.2 16.4 52   LegendMM LegendMM   100.66 32   LegendNANA
13:00 26.4 17.8 59   LegendMM LegendMM   100.66 32   LegendNANA
14:00 26.9 17.5 56   LegendMM LegendMM   100.62 33   LegendNANA
15:00 25.7 16.3 56   LegendMM LegendMM   100.58 31   LegendNANA
16:00 26.4 15.5 51   LegendMM LegendMM   100.59 31   LegendNANA
17:00 25.6 15.0 52   LegendMM LegendMM   100.60 30   LegendNANA
18:00 24.9 14.9 54   LegendMM LegendMM   100.58 29   LegendNANA
19:00 24.0 15.3 58   LegendMM LegendMM   100.56 28   LegendNANA
20:00 23.0 13.9 57   LegendMM LegendMM   100.57 26   LegendNANA
21:00 23.5 11.3 46   LegendMM LegendMM   100.63 25   LegendNANA
22:00 21.9 10.8 49   LegendMM LegendMM   100.65     LegendNANA
23:00 21.2 10.7 51   LegendMM LegendMM   100.65     LegendNANA

Notes on Data Quality.

Legend

  • E = Estimated
  • M = Missing
  • NA = Not Available*
  • [empty] = Indicates an unobserved value
Date modified: